QPF
0.01 0.02 0.02 0.02 0.02 0.01 0.02 0.02 0.02 0.02 0.03 0.02 0.02 0.01 0.00 0.00 0.00 0.01 0.02 0.02 0.01 0.01 0.01 0.01 0.02 0.02 0.02 0.02 0.02 0.01 0.00 0.00 0.01 0.01 0.01 0.00 0.01 0.01 0.00 0.01 0.01 0.00 0.00 0.00
0.00 0.01 0.01 0.01 0.01 0.01 0.01 0.01 0.02 0.02 0.02 0.02 0.01 0.00 0.00 0.00 0.00 0.00 0.01 0.01 0.00 0.00 0.01 0.02 0.02 0.02 0.02 0.01 0.01 0.01 0.00 0.00 0.00 0.01 0.01 0.01 0.01 0.01 0.01 0.01 0.00 0.00 0.00 0.00
0.00 0.00 0.00 0.00 0.01 0.01 0.01 0.01 0.01 0.01 0.02 0.02 0.01 0.01 0.01 0.00 0.00 0.00 0.00 0.00 0.00 0.01 0.01 0.01 0.01 0.01 0.01 0.02 0.01 0.01 0.01 0.00 0.00 0.01 0.01 0.01 0.01 0.01 0.01 0.00 0.02 0.01 0.00 0.00
0.00 0.00 0.00 0.00 0.00 0.01 0.01 0.01 0.01 0.01 0.03 0.03 0.03 0.03 0.02 0.00 0.00 0.00 0.00 0.00 0.00 0.01 0.01 0.01 0.01 0.02 0.01 0.01 0.01 0.01 0.02 0.01 0.01 0.00 0.00 0.00 0.00 0.00 0.01 0.01 0.02 0.01 0.00 0.00
0.00 0.00 0.00 0.00 0.00 0.00 0.00 0.00 0.01 0.01 0.02 0.03 0.03 0.03 0.01 0.00 0.01 0.00 0.00 0.00 0.00 0.00 0.00 0.00 0.01 0.01 0.01 0.01 0.02 0.02 0.03 0.03 0.01 0.01 0.01 0.01 0.01 0.02 0.02 0.02 0.02 0.01 0.00 0.00
0.00 0.00 0.00 0.00 0.00 0.00 0.00 0.01 0.01 0.02 0.03 0.04 0.02 0.02 0.02 0.00 0.00 0.00 0.00 0.00 0.00 0.00 0.00 0.00 0.00 0.01 0.02 0.02 0.03 0.04 0.05 0.06 0.05 0.03 0.02 0.02 0.02 0.02 0.02 0.03 0.03 0.03 0.01 0.01
0.00 0.00 0.01 0.00 0.00 0.00 0.01 0.02 0.03 0.04 0.05 0.03 0.01 0.02 0.02 0.01 0.00 0.00 0.00 0.00 0.00 0.00 0.00 0.00 0.00 0.00 0.02 0.03 0.04 0.05 0.05 0.05 0.06 0.05 0.03 0.02 0.01 0.01 0.01 0.01 0.02 0.03 0.03 0.02
0.01 0.01 0.01 0.01 0.01 0.01 0.01 0.03 0.05 0.05 0.05 0.03 0.01 0.03 0.02 0.00 0.00 0.00 0.00 0.00 0.00 0.01 0.00 0.00 0.00 0.00 0.01 0.02 0.04 0.05 0.05 0.05 0.05 0.04 0.03 0.02 0.02 0.01 0.01 0.01 0.03 0.04 0.03 0.03
0.01 0.01 0.01 0.01 0.01 0.01 0.02 0.02 0.03 0.03 0.02 0.04 0.03 0.03 0.02 0.00 0.00 0.00 0.00 0.00 0.00 0.01 0.01 0.00 0.00 0.00 0.00 0.01 0.02 0.03 0.04 0.05 0.06 0.05 0.04 0.02 0.01 0.01 0.01 0.01 0.01 0.02 0.02 0.03
0.00 0.01 0.01 0.01 0.01 0.01 0.02 0.02 0.03 0.03 0.03 0.06 0.06 0.03 0.02 0.01 0.00 0.00 0.00 0.00 0.00 0.00 0.01 0.01 0.00 0.00 0.00 0.01 0.01 0.02 0.05 0.07 0.07 0.08 0.08 0.05 0.02 0.01 0.01 0.01 0.01 0.01 0.02 0.03
0.00 0.01 0.02 0.02 0.03 0.03 0.03 0.03 0.03 0.03 0.03 0.05 0.06 0.05 0.02 0.01 0.00 0.00 0.00 0.00 0.00 0.00 0.01 0.01 0.01 0.00 0.00 0.00 0.01 0.01 0.02 0.04 0.06 0.08 0.10 0.07 0.05 0.02 0.00 0.00 0.00 0.01 0.01 0.01
0.00 0.01 0.02 0.04 0.03 0.02 0.04 0.04 0.03 0.03 0.03 0.03 0.04 0.06 0.03 0.01 0.00 0.00 0.00 0.00 0.00 0.00 0.00 0.01 0.01 0.01 0.00 0.01 0.01 0.01 0.01 0.01 0.03 0.05 0.06 0.07 0.06 0.04 0.02 0.01 0.00 0.00 0.01 0.01
0.01 0.01 0.03 0.04 0.03 0.03 0.05 0.04 0.03 0.02 0.03 0.03 0.03 0.04 0.04 0.02 0.01 0.00 0.00 0.00 0.00 0.00 0.00 0.00 0.00 0.01 0.00 0.01 0.02 0.01 0.01 0.01 0.02 0.03 0.03 0.04 0.05 0.05 0.04 0.03 0.02 0.01 0.01 0.01
0.01 0.02 0.03 0.04 0.04 0.03 0.04 0.05 0.04 0.03 0.03 0.03 0.03 0.03 0.02 0.02 0.02 0.01 0.00 0.00 0.00 0.00 0.00 0.00 0.00 0.01 0.01 0.02 0.02 0.03 0.02 0.01 0.01 0.01 0.02 0.02 0.03 0.03 0.03 0.03 0.03 0.03 0.02 0.01
0.01 0.03 0.03 0.02 0.01 0.02 0.03 0.05 0.03 0.03 0.03 0.04 0.04 0.02 0.02 0.02 0.02 0.01 0.00 0.00 0.00 0.00 0.00 0.00 0.01 0.01 0.01 0.02 0.03 0.03 0.03 0.02 0.01 0.01 0.01 0.02 0.02 0.03 0.04 0.04 0.04 0.03 0.02 0.02
0.01 0.02 0.02 0.02 0.01 0.01 0.02 0.03 0.03 0.02 0.03 0.03 0.03 0.02 0.02 0.01 0.01 0.01 0.01 0.00 0.00 0.00 0.00 0.00 0.00 0.01 0.02 0.02 0.03 0.03 0.03 0.02 0.02 0.01 0.01 0.02 0.02 0.02 0.03 0.03 0.04 0.04 0.02 0.02
0.01 0.01 0.02 0.02 0.01 0.01 0.02 0.03 0.02 0.02 0.02 0.02 0.02 0.02 0.02 0.01 0.01 0.00 0.01 0.00 0.00 0.00 0.01 0.01 0.01 0.00 0.00 0.01 0.01 0.03 0.03 0.03 0.02 0.01 0.01 0.01 0.02 0.02 0.02 0.02 0.02 0.02 0.02 0.01
0.00 0.00 0.01 0.01 0.01 0.02 0.03 0.02 0.02 0.01 0.01 0.01 0.01 0.01 0.02 0.01 0.01 0.00 0.00 0.00 0.00 0.00 0.00 0.01 0.01 0.01 0.01 0.01 0.01 0.02 0.04 0.03 0.02 0.02 0.01 0.01 0.01 0.01 0.01 0.01 0.01 0.02 0.02 0.02
0.00 0.00 0.00 0.00 0.01 0.02 0.01 0.01 0.02 0.02 0.01 0.01 0.00 0.00 0.01 0.01 0.01 0.00 0.00 0.00 0.00 0.00 0.00 0.00 0.00 0.00 0.00 0.00 0.00 0.01 0.02 0.02 0.02 0.02 0.01 0.01 0.01 0.01 0.01 0.01 0.01 0.02 0.02 0.02
0.00 0.00 0.00 0.00 0.00 0.01 0.01 0.00 0.01 0.01 0.01 0.01 0.00 0.00 0.00 0.01 0.01 0.01 0.00 0.00 0.00 0.00 0.01 0.01 0.01 0.00 0.00 0.00 0.00 0.00 0.01 0.01 0.01 0.02 0.02 0.01 0.01 0.00 0.00 0.00 0.01 0.02 0.03 0.02
0.00 0.00 0.00 0.00 0.00 0.01 0.00 0.00 0.01 0.02 0.02 0.01 0.00 0.00 0.00 0.00 0.01 0.01 0.00 0.00 0.00 0.00 0.00 0.01 0.01 0.01 0.01 0.01 0.01 0.00 0.00 0.01 0.00 0.01 0.02 0.02 0.01 0.00 0.00 0.00 0.00 0.01 0.01 0.02
0.00 0.00 0.00 0.00 0.01 0.01 0.00 0.00 0.01 0.02 0.01 0.01 0.00 0.00 0.00 0.00 0.00 0.01 0.01 0.01 0.00 0.00 0.00 0.01 0.00 0.01 0.01 0.01 0.01 0.00 0.00 0.00 0.00 0.01 0.01 0.02 0.01 0.00 0.00 0.00 0.00 0.01 0.01 0.01
0.00 0.00 0.00 0.00 0.01 0.01 0.00 0.01 0.01 0.01 0.01 0.01 0.01 0.00 0.00 0.00 0.00 0.01 0.01 0.01 0.01 0.01 0.00 0.00 0.00 0.00 0.01 0.01 0.01 0.00 0.00 0.01 0.01 0.01 0.00 0.01 0.02 0.01 0.00 0.00 0.00 0.01 0.01 0.01
0.00 0.00 0.00 0.00 0.00 0.00 0.00 0.00 0.00 0.01 0.01 0.01 0.01 0.00 0.00 0.00 0.01 0.01 0.01 0.02 0.02 0.01 0.01 0.01 0.00 0.00 0.01 0.01 0.01 0.01 0.01 0.01 0.01 0.01 0.01 0.00 0.01 0.01 0.01 0.01 0.00 0.01 0.01 0.01
0.01 0.01 0.01 0.01 0.00 0.00 0.00 0.00 0.00 0.00 0.01 0.01 0.01 0.01 0.00 0.00 0.00 0.01 0.02 0.03 0.03 0.02 0.02 0.02 0.02 0.01 0.01 0.01 0.01 0.01 0.01 0.01 0.01 0.02 0.01 0.01 0.01 0.01 0.01 0.01 0.01 0.01 0.01 0.01
0.00 0.01 0.01 0.01 0.01 0.01 0.01 0.00 0.00 0.00 0.00 0.01 0.01 0.01 0.00 0.00 0.00 0.00 0.01 0.03 0.03 0.02 0.03 0.03 0.02 0.02 0.02 0.02 0.01 0.01 0.02 0.01 0.02 0.01 0.01 0.01 0.01 0.01 0.01 0.02 0.01 0.01 0.01 0.02
MSLP
1016.53 1017.89 1019.13 1020.21 1021.15 1021.97 1022.73 1023.48 1024.22 1024.97 1025.67 1026.27 1026.69 1026.89 1026.85 1026.56 1026.09 1025.50 1024.89 1024.33 1023.87 1023.54 1023.35 1023.25 1023.20 1023.15 1023.07 1022.92 1022.72 1022.48 1022.23 1022.00 1021.80 1021.64 1021.51 1021.40 1021.28 1021.12 1020.92 1020.67 1020.38 1020.05 1019.72 1019.41
1018.03 1019.32 1020.44 1021.36 1022.12 1022.75 1023.33 1023.92 1024.55 1025.22 1025.88 1026.46 1026.89 1027.11 1027.08 1026.81 1026.35 1025.77 1025.17 1024.61 1024.17 1023.86 1023.68 1023.60 1023.56 1023.52 1023.43 1023.29 1023.10 1022.86 1022.63 1022.41 1022.24 1022.11 1022.01 1021.91 1021.80 1021.64 1021.42 1021.15 1020.82 1020.47 1020.12 1019.78
1019.30 1020.48 1021.46 1022.21 1022.78 1023.24 1023.65 1024.10 1024.63 1025.22 1025.83 1026.39 1026.83 1027.06 1027.07 1026.84 1026.42 1025.89 1025.33 1024.82 1024.42 1024.14 1023.99 1023.93 1023.90 1023.87 1023.80 1023.68 1023.50 1023.30 1023.10 1022.92 1022.78 1022.68 1022.60 1022.52 1022.40 1022.22 1021.98 1021.68 1021.33 1020.96 1020.59 1020.24
1020.30 1021.35 1022.18 1022.77 1023.18 1023.49 1023.77 1024.11 1024.54 1025.06 1025.63 1026.17 1026.60 1026.86 1026.90 1026.72 1026.37 1025.91 1025.43 1024.98 1024.64 1024.41 1024.29 1024.25 1024.24 1024.22 1024.17 1024.06 1023.91 1023.75 1023.59 1023.46 1023.37 1023.31 1023.25 1023.17 1023.05 1022.86 1022.59 1022.27 1021.90 1021.52 1021.16 1020.82
1021.03 1021.95 1022.63 1023.09 1023.38 1023.58 1023.77 1024.03 1024.40 1024.86 1025.39 1025.90 1026.31 1026.58 1026.65 1026.52 1026.24 1025.86 1025.46 1025.11 1024.84 1024.67 1024.59 1024.57 1024.57 1024.56 1024.51 1024.42 1024.31 1024.18 1024.07 1023.99 1023.95 1023.92 1023.89 1023.82 1023.70 1023.50 1023.23 1022.90 1022.54 1022.17 1021.82 1021.50
1021.51 1022.30 1022.87 1023.23 1023.44 1023.57 1023.71 1023.93 1024.26 1024.68 1025.16 1025.63 1026.02 1026.28 1026.36 1026.27 1026.06 1025.77 1025.46 1025.20 1025.00 1024.90 1024.86 1024.86 1024.88 1024.87 1024.83 1024.75 1024.66 1024.57 1024.50 1024.47 1024.46 1024.48 1024.47 1024.43 1024.31 1024.12 1023.86 1023.55 1023.21 1022.87 1022.56 1022.28
1021.77 1022.44 1022.91 1023.21 1023.38 1023.50 1023.64 1023.85 1024.15 1024.55 1024.98 1025.41 1025.75 1025.98 1026.06 1026.00 1025.84 1025.62 1025.41 1025.23 1025.13 1025.08 1025.10 1025.13 1025.15 1025.15 1025.11 1025.05 1024.97 1024.90 1024.87 1024.87 1024.91 1024.95 1024.98 1024.96 1024.87 1024.71 1024.47 1024.20 1023.90 1023.61 1023.34 1023.11
1021.83 1022.40 1022.81 1023.07 1023.24 1023.38 1023.54 1023.76 1024.07 1024.43 1024.83 1025.19 1025.48 1025.67 1025.73 1025.68 1025.57 1025.42 1025.29 1025.21 1025.19 1025.22 1025.28 1025.35 1025.40 1025.40 1025.37 1025.31 1025.25 1025.20 1025.19 1025.23 1025.29 1025.36 1025.42 1025.43 1025.38 1025.25 1025.06 1024.83 1024.59 1024.35 1024.14 1023.96
1021.71 1022.20 1022.56 1022.83 1023.02 1023.20 1023.40 1023.65 1023.96 1024.31 1024.65 1024.95 1025.18 1025.31 1025.34 1025.30 1025.22 1025.14 1025.09 1025.10 1025.16 1025.27 1025.40 1025.52 1025.60 1025.63 1025.61 1025.57 1025.52 1025.49 1025.51 1025.56 1025.65 1025.75 1025.83 1025.87 1025.85 1025.76 1025.62 1025.45 1025.27 1025.09 1024.93 1024.79
1021.42 1021.86 1022.20 1022.48 1022.71 1022.94 1023.19 1023.47 1023.78 1024.10 1024.40 1024.64 1024.80 1024.88 1024.88 1024.84 1024.79 1024.77 1024.80 1024.90 1025.05 1025.25 1025.45 1025.62 1025.75 1025.82 1025.83 1025.82 1025.80 1025.80 1025.83 1025.91 1026.02 1026.14 1026.24 1026.31 1026.32 1026.28 1026.18 1026.06 1025.92 1025.80 1025.69 1025.58
1021.03 1021.42 1021.76 1022.05 1022.32 1022.59 1022.88 1023.18 1023.49 1023.78 1024.03 1024.21 1024.31 1024.35 1024.33 1024.30 1024.28 1024.32 1024.43 1024.61 1024.85 1025.13 1025.41 1025.65 1025.84 1025.96 1026.03 1026.06 1026.08 1026.12 1026.19 1026.30 1026.43 1026.57 1026.69 1026.78 1026.81 1026.80 1026.74 1026.66 1026.57 1026.48 1026.40 1026.33
1020.58 1020.95 1021.28 1021.59 1021.88 1022.18 1022.48 1022.79 1023.08 1023.33 1023.53 1023.66 1023.72 1023.73 1023.70 1023.69 1023.71 1023.81 1023.99 1024.26 1024.58 1024.94 1025.29 1025.61 1025.86 1026.05 1026.18 1026.28 1026.36 1026.45 1026.57 1026.71 1026.87 1027.03 1027.17 1027.28 1027.33 1027.34 1027.31 1027.25 1027.19 1027.13 1027.07 1027.02
1020.16 1020.51 1020.84 1021.14 1021.44 1021.74 1022.03 1022.31 1022.57 1022.77 1022.92 1023.01 1023.04 1023.03 1023.02 1023.04 1023.11 1023.28 1023.53 1023.86 1024.26 1024.68 1025.10 1025.48 1025.80 1026.06 1026.27 1026.44 1026.59 1026.75 1026.93 1027.12 1027.32 1027.51 1027.67 1027.78 1027.85 1027.88 1027.86 1027.82 1027.78 1027.74 1027.70 1027.66
1019.84 1020.18 1020.49 1020.78 1021.06 1021.32 1021.57 1021.79 1021.99 1022.14 1022.23 1022.28 1022.30 1022.30 1022.32 1022.38 1022.52 1022.74 1023.06 1023.46 1023.91 1024.38 1024.84 1025.27 1025.65 1025.98 1026.26 1026.51 1026.74 1026.98 1027.23 1027.48 1027.72 1027.94 1028.13 1028.27 1028.35 1028.38 1028.38 1028.36 1028.32 1028.29 1028.27 1028.23
1019.68 1020.00 1020.29 1020.54 1020.76 1020.95 1021.13 1021.27 1021.38 1021.46 1021.51 1021.53 1021.54 1021.56 1021.62 1021.75 1021.95 1022.24 1022.61 1023.05 1023.54 1024.04 1024.53 1024.99 1025.41 1025.79 1026.14 1026.47 1026.79 1027.11 1027.43 1027.75 1028.04 1028.31 1028.52 1028.68 1028.78 1028.83 1028.84 1028.82 1028.80 1028.78 1028.76 1028.73
1019.70 1019.99 1020.23 1020.42 1020.56 1020.66 1020.73 1020.77 1020.78 1020.78 1020.77 1020.77 1020.79 1020.85 1020.96 1021.15 1021.43 1021.78 1022.20 1022.68 1023.18 1023.69 1024.19 1024.67 1025.11 1025.53 1025.93 1026.33 1026.73 1027.12 1027.52 1027.91 1028.26 1028.57 1028.82 1029.00 1029.12 1029.18 1029.20 1029.19 1029.18 1029.17 1029.15 1029.14
1019.85 1020.11 1020.29 1020.40 1020.45 1020.43 1020.38 1020.30 1020.21 1020.13 1020.07 1020.04 1020.08 1020.18 1020.35 1020.62 1020.96 1021.37 1021.83 1022.33 1022.84 1023.35 1023.85 1024.32 1024.78 1025.22 1025.67 1026.12 1026.58 1027.05 1027.51 1027.96 1028.36 1028.71 1028.99 1029.20 1029.34 1029.41 1029.45 1029.45 1029.45 1029.44 1029.44 1029.43
1020.03 1020.26 1020.38 1020.41 1020.35 1020.22 1020.04 1019.85 1019.66 1019.50 1019.40 1019.36 1019.42 1019.56 1019.80 1020.14 1020.54 1021.01 1021.51 1022.03 1022.54 1023.05 1023.53 1024.00 1024.46 1024.92 1025.39 1025.89 1026.40 1026.92 1027.44 1027.93 1028.38 1028.76 1029.06 1029.29 1029.44 1029.53 1029.57 1029.59 1029.60 1029.60 1029.60 1029.60
1020.15 1020.33 1020.39 1020.34 1020.18 1019.95 1019.67 1019.39 1019.12 1018.91 1018.77 1018.74 1018.82 1019.02 1019.32 1019.72 1020.18 1020.70 1021.23 1021.77 1022.29 1022.79 1023.27 1023.73 1024.19 1024.66 1025.16 1025.68 1026.23 1026.79 1027.34 1027.86 1028.33 1028.73 1029.05 1029.28 1029.44 1029.54 1029.59 1029.61 1029.63 1029.64 1029.65 1029.66
1020.07 1020.20 1020.21 1020.10 1019.88 1019.58 1019.23 1018.88 1018.57 1018.34 1018.20 1018.18 1018.30 1018.54 1018.90 1019.36 1019.88 1020.44 1021.00 1021.56 1022.09 1022.59 1023.06 1023.53 1024.00 1024.48 1025.00 1025.54 1026.11 1026.69 1027.26 1027.79 1028.27 1028.66 1028.98 1029.21 1029.36 1029.46 1029.51 1029.54 1029.56 1029.58 1029.60 1029.62
1019.72 1019.82 1019.79 1019.64 1019.38 1019.05 1018.69 1018.33 1018.02 1017.79 1017.68 1017.70 1017.86 1018.16 1018.57 1019.07 1019.63 1020.22 1020.81 1021.38 1021.92 1022.43 1022.92 1023.39 1023.88 1024.38 1024.91 1025.47 1026.05 1026.64 1027.21 1027.73 1028.19 1028.57 1028.87 1029.08 1029.22 1029.31 1029.36 1029.40 1029.43 1029.46 1029.49 1029.53
1019.10 1019.17 1019.12 1018.95 1018.70 1018.39 1018.05 1017.72 1017.45 1017.28 1017.22 1017.30 1017.51 1017.85 1018.31 1018.84 1019.43 1020.04 1020.65 1021.23 1021.79 1022.31 1022.81 1023.30 1023.81 1024.33 1024.88 1025.45 1026.03 1026.61 1027.16 1027.66 1028.10 1028.45 1028.72 1028.91 1029.04 1029.11 1029.16 1029.20 1029.24 1029.29 1029.34 1029.40
1018.26 1018.30 1018.24 1018.09 1017.87 1017.61 1017.33 1017.09 1016.91 1016.81 1016.83 1016.98 1017.25 1017.64 1018.12 1018.68 1019.28 1019.90 1020.51 1021.09 1021.65 1022.18 1022.70 1023.21 1023.73 1024.27 1024.83 1025.41 1025.99 1026.55 1027.08 1027.56 1027.96 1028.28 1028.52 1028.69 1028.80 1028.87 1028.92 1028.97 1029.03 1029.10 1029.19 1029.27
1017.30 1017.30 1017.24 1017.12 1016.96 1016.78 1016.60 1016.47 1016.39 1016.41 1016.52 1016.74 1017.07 1017.50 1018.00 1018.56 1019.16 1019.76 1020.36 1020.93 1021.49 1022.02 1022.55 1023.07 1023.60 1024.15 1024.72 1025.29 1025.86 1026.41 1026.91 1027.35 1027.73 1028.02 1028.24 1028.39 1028.50 1028.57 1028.64 1028.71 1028.79 1028.90 1029.02 1029.15
1016.33 1016.30 1016.24 1016.15 1016.06 1015.97 1015.91 1015.89 1015.94 1016.07 1016.28 1016.58 1016.96 1017.41 1017.92 1018.48 1019.05 1019.62 1020.18 1020.73 1021.27 1021.79 1022.31 1022.83 1023.36 1023.91 1024.47 1025.03 1025.58 1026.11 1026.59 1027.01 1027.35 1027.63 1027.84 1027.99 1028.11 1028.20 1028.30 1028.40 1028.53 1028.67 1028.84 1029.01
1015.48 1015.41 1015.34 1015.28 1015.25 1015.25 1015.29 1015.39 1015.56 1015.79 1016.10 1016.46 1016.89 1017.36 1017.86 1018.39 1018.92 1019.45 1019.97 1020.47 1020.97 1021.46 1021.95 1022.46 1022.97 1023.50 1024.04 1024.58 1025.11 1025.61 1026.07 1026.47 1026.81 1027.08 1027.30 1027.48 1027.62 1027.75 1027.88 1028.03 1028.20 1028.40 1028.61 1028.82
Thickness
5737 5725 5718 5724 5729 5729 5726 5722 5719 5725 5734 5728 5722 5724 5729 5735 5734 5732 5732 5732 5731 5731 5733 5733 5733 5731 5728 5726 5723 5720 5718 5716 5714 5711 5709 5706 5704 5704 5704 5704 5703 5703 5702 5701
5722 5715 5726 5733 5733 5729 5724 5717 5716 5723 5732 5726 5720 5723 5731 5733 5733 5733 5732 5732 5732 5731 5730 5729 5729 5727 5724 5722 5719 5718 5715 5713 5711 5708 5706 5704 5702 5701 5700 5699 5699 5698 5697 5696
5712 5721 5733 5728 5723 5720 5718 5714 5714 5717 5724 5726 5717 5713 5723 5732 5734 5733 5734 5733 5733 5730 5726 5725 5724 5722 5720 5718 5716 5715 5712 5710 5707 5705 5703 5700 5698 5696 5694 5693 5693 5693 5693 5692
5717 5726 5725 5719 5717 5717 5709 5721 5720 5718 5709 5704 5711 5692 5713 5724 5723 5726 5727 5729 5729 5729 5726 5723 5721 5718 5717 5716 5716 5713 5710 5707 5704 5702 5698 5694 5690 5687 5687 5687 5687 5688 5688 5687
5712 5719 5716 5711 5715 5718 5715 5724 5720 5716 5708 5702 5709 5698 5706 5721 5714 5719 5724 5726 5727 5727 5725 5722 5719 5717 5716 5714 5712 5710 5707 5704 5701 5699 5695 5691 5688 5686 5685 5684 5683 5682 5682 5682
5715 5724 5721 5716 5721 5721 5720 5716 5714 5712 5703 5686 5704 5699 5698 5714 5717 5720 5724 5725 5724 5724 5723 5720 5718 5715 5713 5710 5708 5706 5703 5699 5697 5694 5692 5688 5684 5682 5680 5678 5677 5676 5676 5675
5703 5711 5718 5719 5708 5711 5709 5694 5680 5678 5676 5685 5712 5702 5700 5719 5727 5725 5722 5721 5721 5721 5719 5715 5712 5710 5707 5705 5702 5700 5697 5694 5692 5690 5688 5685 5682 5679 5676 5674 5672 5671 5669 5669
5688 5689 5707 5711 5704 5698 5699 5694 5675 5667 5675 5689 5704 5697 5703 5720 5724 5724 5722 5719 5717 5715 5714 5711 5710 5707 5704 5701 5698 5695 5693 5690 5688 5686 5683 5681 5679 5675 5673 5671 5669 5667 5665 5664
5686 5688 5710 5712 5712 5705 5693 5693 5701 5688 5688 5685 5694 5698 5698 5714 5713 5713 5713 5711 5708 5708 5707 5706 5705 5703 5700 5697 5694 5691 5688 5685 5683 5681 5679 5677 5675 5671 5669 5667 5665 5663 5662 5661
5694 5683 5697 5705 5706 5704 5700 5697 5691 5679 5668 5668 5685 5692 5687 5692 5699 5703 5703 5701 5702 5703 5702 5700 5699 5697 5694 5692 5690 5687 5684 5681 5679 5677 5675 5673 5670 5668 5665 5663 5660 5659 5658 5656
5695 5682 5686 5691 5687 5686 5691 5689 5687 5683 5680 5668 5666 5674 5698 5696 5698 5696 5697 5698 5697 5696 5695 5694 5692 5691 5689 5687 5684 5681 5679 5676 5674 5672 5671 5668 5665 5663 5660 5657 5656 5654 5653 5651
5692 5684 5677 5685 5699 5703 5694 5689 5684 5668 5670 5677 5668 5668 5699 5699 5698 5695 5692 5693 5693 5691 5690 5688 5686 5685 5682 5680 5678 5676 5674 5671 5669 5667 5665 5663 5660 5657 5655 5652 5651 5649 5647 5646
5684 5676 5666 5668 5676 5686 5684 5686 5685 5681 5675 5670 5662 5665 5691 5693 5691 5689 5687 5685 5685 5684 5682 5681 5679 5678 5676 5674 5672 5670 5668 5666 5663 5661 5658 5656 5653 5651 5649 5647 5646 5644 5642 5640
5680 5672 5665 5658 5665 5675 5675 5678 5679 5673 5664 5665 5668 5668 5677 5680 5679 5679 5679 5678 5677 5676 5675 5673 5671 5670 5669 5668 5667 5664 5662 5660 5657 5654 5652 5649 5647 5645 5644 5642 5640 5638 5636 5633
5676 5666 5671 5675 5680 5679 5674 5672 5672 5669 5668 5663 5667 5669 5672 5674 5675 5675 5675 5673 5670 5668 5667 5667 5664 5663 5661 5661 5660 5658 5656 5654 5651 5648 5645 5643 5641 5639 5638 5636 5633 5631 5629 5627
5673 5665 5668 5669 5678 5677 5670 5670 5669 5668 5668 5666 5666 5664 5675 5677 5675 5671 5668 5666 5663 5661 5660 5660 5658 5656 5655 5654 5652 5651 5649 5647 5645 5641 5638 5636 5634 5632 5630 5629 5627 5624 5622 5621
5667 5664 5658 5657 5671 5668 5658 5667 5667 5666 5667 5665 5658 5662 5671 5669 5667 5664 5662 5660 5657 5656 5654 5653 5651 5650 5648 5647 5646 5644 5642 5640 5637 5634 5631 5629 5627 5625 5623 5621 5619 5617 5615 5613
5664 5660 5656 5653 5656 5641 5659 5676 5674 5666 5665 5666 5663 5665 5664 5664 5663 5662 5659 5654 5652 5651 5649 5647 5646 5644 5642 5642 5640 5639 5636 5633 5630 5627 5624 5622 5620 5617 5615 5614 5611 5609 5608 5605
5667 5657 5648 5645 5641 5647 5659 5667 5666 5660 5656 5663 5659 5658 5658 5659 5656 5652 5653 5651 5647 5645 5644 5642 5641 5639 5637 5635 5633 5631 5629 5626 5623 5620 5618 5615 5613 5610 5608 5606 5603 5602 5600 5597
5662 5658 5646 5642 5635 5634 5648 5662 5668 5659 5644 5657 5656 5651 5649 5646 5637 5637 5645 5644 5641 5640 5638 5636 5634 5632 5629 5627 5626 5623 5620 5618 5615 5614 5611 5609 5606 5604 5601 5599 5597 5594 5592 5590
5643 5642 5637 5634 5632 5639 5652 5657 5657 5637 5636 5650 5650 5646 5641 5636 5635 5636 5638 5635 5633 5632 5631 5629 5626 5624 5622 5620 5618 5616 5613 5610 5609 5607 5604 5602 5599 5597 5595 5592 5590 5587 5585 5583
5639 5635 5634 5633 5626 5629 5648 5649 5641 5639 5646 5644 5642 5640 5635 5631 5630 5630 5628 5626 5624 5623 5622 5620 5618 5615 5614 5613 5610 5608 5605 5604 5602 5599 5597 5594 5592 5590 5588 5584 5582 5580 5577 5575
5642 5641 5637 5635 5632 5643 5646 5644 5643 5644 5639 5637 5634 5632 5629 5624 5621 5620 5618 5616 5615 5613 5612 5611 5609 5607 5605 5604 5603 5599 5598 5597 5595 5592 5589 5587 5585 5582 5580 5577 5574 5571 5569 5565
5640 5645 5637 5634 5637 5639 5640 5640 5638 5636 5632 5630 5628 5625 5622 5617 5614 5612 5609 5607 5606 5605 5603 5602 5601 5598 5596 5596 5595 5593 5591 5590 5587 5584 5581 5579 5576 5574 5571 5568 5566 5562 5559 5556
5630 5631 5628 5626 5631 5632 5632 5632 5631 5628 5626 5623 5620 5618 5614 5610 5607 5604 5602 5600 5598 5596 5594 5593 5591 5589 5588 5587 5586 5585 5584 5582 5579 5577 5574 5571 5569 5565 5562 5559 5556 5554 5551 5549
5628 5624 5619 5619 5627 5624 5623 5626 5626 5621 5617 5615 5612 5609 5606 5603 5599 5597 5594 5592 5589 5587 5586 5584 5582 5580 5579 5579 5578 5577 5576 5574 5571 5568 5566 5563 5560 5557 5554 5550 5547 5546 5544 5542